Year,Month,Day,Hour,Minute,Value (Times are PST for temperature in C)
2020,04,01,00,00,4.70
2020,04,01,00,01,4.70
2020,04,01,00,02,4.70
2020,04,01,00,03,4.70
2020,04,01,00,04,4.70
2020,04,01,00,05,4.70
2020,04,01,00,06,4.70
2020,04,01,00,07,4.70
2020,04,01,00,08,4.70
2020,04,01,00,09,4.70
2020,04,01,00,10,4.70
2020,04,01,00,11,4.60
2020,04,01,00,12,4.60
2020,04,01,00,13,4.60
2020,04,01,00,14,4.60
2020,04,01,00,15,4.60
2020,04,01,00,16,4.60
2020,04,01,00,17,4.60
2020,04,01,00,18,4.60
2020,04,01,00,19,4.60
2020,04,01,00,20,4.60
2020,04,01,00,21,4.60
2020,04,01,00,22,4.60
2020,04,01,00,23,4.60
2020,04,01,00,24,4.60
2020,04,01,00,25,4.60
2020,04,01,00,26,4.60
2020,04,01,00,27,4.60
2020,04,01,00,28,4.60
2020,04,01,00,29,4.60
2020,04,01,00,30,4.60
2020,04,01,00,31,4.60
2020,04,01,00,32,4.60
2020,04,01,00,33,4.60
2020,04,01,00,34,4.60
2020,04,01,00,35,4.60
2020,04,01,00,36,4.60
2020,04,01,00,37,4.60
2020,04,01,00,38,4.60
2020,04,01,00,39,4.60
2020,04,01,00,40,4.60
2020,04,01,00,41,4.50
2020,04,01,00,42,4.60
2020,04,01,00,43,4.50
2020,04,01,00,44,4.50
2020,04,01,00,45,4.50
2020,04,01,00,46,4.50
2020,04,01,00,47,4.50
2020,04,01,00,48,4.50
2020,04,01,00,49,4.60
2020,04,01,00,50,4.50
2020,04,01,00,51,4.60
2020,04,01,00,52,4.50
2020,04,01,00,53,4.60
2020,04,01,00,54,4.60
2020,04,01,00,55,4.60
2020,04,01,00,56,4.60
2020,04,01,00,57,4.60
2020,04,01,00,58,4.60
2020,04,01,00,59,4.60
2020,04,01,01,00,4.60
2020,04,01,01,01,4.60
2020,04,01,01,02,4.50
2020,04,01,01,03,4.50
2020,04,01,01,04,4.60
2020,04,01,01,05,4.50
2020,04,01,01,06,4.50
2020,04,01,01,07,4.60
2020,04,01,01,08,4.60
2020,04,01,01,09,4.60
2020,04,01,01,10,4.60
2020,04,01,01,11,4.60
2020,04,01,01,12,4.60
2020,04,01,01,13,4.60
2020,04,01,01,14,4.60
2020,04,01,01,15,4.60
2020,04,01,01,16,4.60
2020,04,01,01,17,4.60
2020,04,01,01,18,4.60
2020,04,01,01,19,4.60
2020,04,01,01,20,4.60
2020,04,01,01,21,4.60
2020,04,01,01,22,4.50
2020,04,01,01,23,4.50
2020,04,01,01,24,4.50
2020,04,01,01,25,4.50
2020,04,01,01,26,4.50
2020,04,01,01,27,4.50
2020,04,01,01,28,4.50
2020,04,01,01,29,4.50
2020,04,01,01,30,4.50
2020,04,01,01,31,4.40
2020,04,01,01,32,4.40
2020,04,01,01,33,4.40
2020,04,01,01,34,4.40
2020,04,01,01,35,4.40
2020,04,01,01,36,4.40
2020,04,01,01,37,4.40
2020,04,01,01,38,4.40
2020,04,01,01,39,4.30
2020,04,01,01,40,4.30
2020,04,01,01,41,4.30
2020,04,01,01,42,4.30
2020,04,01,01,43,4.30
2020,04,01,01,44,4.30
2020,04,01,01,45,4.20
2020,04,01,01,46,4.20
2020,04,01,01,47,4.20
2020,04,01,01,48,4.20
2020,04,01,01,49,4.20
2020,04,01,01,50,4.20
2020,04,01,01,51,4.20
2020,04,01,01,52,4.20
2020,04,01,01,53,4.10
2020,04,01,01,54,4.10
2020,04,01,01,55,4.10
2020,04,01,01,56,4.10
2020,04,01,01,57,4.10
2020,04,01,01,58,4.00
2020,04,01,01,59,4.00
2020,04,01,02,00,4.00
2020,04,01,02,01,4.00
2020,04,01,02,02,4.00
2020,04,01,02,03,4.00
2020,04,01,02,04,3.90
2020,04,01,02,05,3.90
2020,04,01,02,06,3.90
2020,04,01,02,07,3.90
2020,04,01,02,08,3.90
2020,04,01,02,09,3.90
2020,04,01,02,10,3.90
2020,04,01,02,11,3.90
2020,04,01,02,12,3.80
2020,04,01,02,13,3.80
2020,04,01,02,14,3.80
2020,04,01,02,15,3.80
2020,04,01,02,16,3.80
2020,04,01,02,17,3.80
2020,04,01,02,18,3.80
2020,04,01,02,19,3.80
2020,04,01,02,20,3.70
2020,04,01,02,21,3.70
2020,04,01,02,22,3.70
2020,04,01,02,23,3.70
2020,04,01,02,24,3.70
2020,04,01,02,25,3.70
2020,04,01,02,26,3.70
2020,04,01,02,27,3.70
2020,04,01,02,28,3.70
2020,04,01,02,29,3.70
2020,04,01,02,30,3.70
2020,04,01,02,31,3.70
2020,04,01,02,32,3.70
2020,04,01,02,33,3.70
2020,04,01,02,34,3.70
2020,04,01,02,35,3.60
2020,04,01,02,36,3.60
2020,04,01,02,37,3.60
2020,04,01,02,38,3.60
2020,04,01,02,39,3.60
2020,04,01,02,40,3.60
2020,04,01,02,41,3.60
2020,04,01,02,42,3.60
2020,04,01,02,43,3.60
2020,04,01,02,44,3.60
2020,04,01,02,45,3.60
2020,04,01,02,46,3.50
2020,04,01,02,47,3.50
2020,04,01,02,48,3.50
2020,04,01,02,49,3.40
2020,04,01,02,50,3.40
2020,04,01,02,51,3.40
2020,04,01,02,52,3.40
2020,04,01,02,53,3.30
2020,04,01,02,54,3.30
2020,04,01,02,55,3.30
2020,04,01,02,56,3.30
2020,04,01,02,57,3.20
2020,04,01,02,58,3.20
2020,04,01,02,59,3.20
2020,04,01,03,00,3.20
2020,04,01,03,01,3.20
2020,04,01,03,02,3.20
2020,04,01,03,03,3.10
2020,04,01,03,04,3.10
2020,04,01,03,05,3.10
2020,04,01,03,06,3.10
2020,04,01,03,07,3.00
2020,04,01,03,08,3.00
2020,04,01,03,09,3.00
2020,04,01,03,10,3.00
2020,04,01,03,11,3.00
2020,04,01,03,12,2.90
2020,04,01,03,13,2.90
2020,04,01,03,14,2.90
2020,04,01,03,15,2.90
2020,04,01,03,16,2.90
2020,04,01,03,17,2.90
2020,04,01,03,18,2.90
2020,04,01,03,19,2.90
2020,04,01,03,20,2.90
2020,04,01,03,21,2.80
2020,04,01,03,22,2.80
2020,04,01,03,23,2.80
2020,04,01,03,24,2.80
2020,04,01,03,25,2.80
2020,04,01,03,26,2.80
2020,04,01,03,27,2.80
2020,04,01,03,28,2.80
2020,04,01,03,29,2.80
2020,04,01,03,30,2.80
2020,04,01,03,31,2.80
2020,04,01,03,32,2.80
2020,04,01,03,33,2.80
2020,04,01,03,34,2.80
2020,04,01,03,35,2.70
2020,04,01,03,36,2.80
2020,04,01,03,37,2.70
2020,04,01,03,38,2.80
2020,04,01,03,39,2.80
2020,04,01,03,40,2.80
2020,04,01,03,41,2.70
2020,04,01,03,42,2.70
2020,04,01,03,43,2.70
2020,04,01,03,44,2.70
2020,04,01,03,45,2.70
2020,04,01,03,46,2.70
2020,04,01,03,47,2.70
2020,04,01,03,48,2.70
2020,04,01,03,49,2.70
2020,04,01,03,50,2.70
2020,04,01,03,51,2.70
2020,04,01,03,52,2.70
2020,04,01,03,53,2.70
2020,04,01,03,54,2.70
2020,04,01,03,55,2.70
2020,04,01,03,56,2.70
2020,04,01,03,57,2.70
2020,04,01,03,58,2.60
2020,04,01,03,59,2.60
2020,04,01,04,00,2.60
2020,04,01,04,01,2.60
2020,04,01,04,02,2.60
2020,04,01,04,03,2.70
2020,04,01,04,04,2.70
2020,04,01,04,05,2.60
2020,04,01,04,06,2.60
2020,04,01,04,07,2.60
2020,04,01,04,08,2.60
2020,04,01,04,09,2.60
2020,04,01,04,10,2.60
2020,04,01,04,11,2.60
2020,04,01,04,12,2.60
2020,04,01,04,13,2.60
2020,04,01,04,14,2.50
2020,04,01,04,15,2.50
2020,04,01,04,16,2.50
2020,04,01,04,17,2.50
2020,04,01,04,18,2.50
2020,04,01,04,19,2.50
2020,04,01,04,20,2.50
2020,04,01,04,21,2.50
2020,04,01,04,22,2.50
2020,04,01,04,23,2.50
2020,04,01,04,24,2.50
2020,04,01,04,25,2.50
2020,04,01,04,26,2.50
2020,04,01,04,27,2.40
2020,04,01,04,28,2.40
2020,04,01,04,29,2.40
2020,04,01,04,30,2.40
2020,04,01,04,31,2.40
2020,04,01,04,32,2.40
2020,04,01,04,33,2.40
2020,04,01,04,34,2.40
2020,04,01,04,35,2.40
2020,04,01,04,36,2.40
2020,04,01,04,37,2.40
2020,04,01,04,38,2.40
2020,04,01,04,39,2.40
2020,04,01,04,40,2.40
2020,04,01,04,41,2.40
2020,04,01,04,42,2.40
2020,04,01,04,43,2.40
2020,04,01,04,44,2.40
2020,04,01,04,45,2.40
2020,04,01,04,46,2.30
2020,04,01,04,47,2.30
2020,04,01,04,48,2.30
2020,04,01,04,49,2.30
2020,04,01,04,50,2.30
2020,04,01,04,51,2.30
2020,04,01,04,52,2.30
2020,04,01,04,53,2.20
2020,04,01,04,54,2.20
2020,04,01,04,55,2.20
2020,04,01,04,56,2.20
2020,04,01,04,57,2.20
2020,04,01,04,58,2.20
2020,04,01,04,59,2.10
2020,04,01,05,00,2.10
2020,04,01,05,01,2.10
2020,04,01,05,02,2.10
2020,04,01,05,03,2.10
2020,04,01,05,04,2.10
2020,04,01,05,05,2.10
2020,04,01,05,06,2.10
2020,04,01,05,07,2.10
2020,04,01,05,08,2.10
2020,04,01,05,09,2.10
2020,04,01,05,10,2.10
2020,04,01,05,11,2.10
2020,04,01,05,12,2.00
2020,04,01,05,13,2.00
2020,04,01,05,14,2.00
2020,04,01,05,15,1.90
2020,04,01,05,16,1.90
2020,04,01,05,17,1.90
2020,04,01,05,18,1.90
2020,04,01,05,19,1.90
2020,04,01,05,20,1.90
2020,04,01,05,21,1.90
2020,04,01,05,22,1.90
2020,04,01,05,23,1.90
2020,04,01,05,24,1.90
2020,04,01,05,25,1.90
2020,04,01,05,26,1.80
2020,04,01,05,27,1.80
2020,04,01,05,28,1.80
2020,04,01,05,29,1.80
2020,04,01,05,30,1.80
2020,04,01,05,31,1.80
2020,04,01,05,32,1.80
2020,04,01,05,33,1.80
2020,04,01,05,34,1.80
2020,04,01,05,35,1.80
2020,04,01,05,36,1.80
2020,04,01,05,37,1.80
2020,04,01,05,38,1.80
2020,04,01,05,39,1.80
2020,04,01,05,40,1.80
2020,04,01,05,41,1.80
2020,04,01,05,42,1.80
2020,04,01,05,43,1.80
2020,04,01,05,44,1.80
2020,04,01,05,45,1.80
2020,04,01,05,46,1.80
2020,04,01,05,47,1.80
2020,04,01,05,48,1.80
2020,04,01,05,49,1.80
2020,04,01,05,50,1.80
2020,04,01,05,51,1.80
2020,04,01,05,52,1.80
2020,04,01,05,53,1.80
2020,04,01,05,54,1.80
2020,04,01,05,55,1.80
2020,04,01,05,56,1.80
2020,04,01,05,57,1.80
2020,04,01,05,58,1.80
2020,04,01,05,59,1.70
2020,04,01,06,00,1.70
2020,04,01,06,01,1.70
2020,04,01,06,02,1.70
2020,04,01,06,03,1.70
2020,04,01,06,04,1.70
2020,04,01,06,05,1.70
2020,04,01,06,06,1.70
2020,04,01,06,07,1.70
2020,04,01,06,08,1.70
2020,04,01,06,09,1.70
2020,04,01,06,10,1.70
2020,04,01,06,11,1.80
2020,04,01,06,12,1.80
2020,04,01,06,13,1.70
2020,04,01,06,14,1.70
2020,04,01,06,15,1.70
2020,04,01,06,16,1.70
2020,04,01,06,17,1.70
2020,04,01,06,18,1.70
2020,04,01,06,19,1.70
2020,04,01,06,20,1.70
2020,04,01,06,21,1.70
2020,04,01,06,22,1.60
2020,04,01,06,23,1.60
2020,04,01,06,24,1.60
2020,04,01,06,25,1.60
2020,04,01,06,26,1.60
2020,04,01,06,27,1.60
2020,04,01,06,28,1.60
2020,04,01,06,29,1.60
2020,04,01,06,30,1.60
2020,04,01,06,31,1.60
2020,04,01,06,32,1.60
2020,04,01,06,33,1.60
2020,04,01,06,34,1.60
2020,04,01,06,35,1.60
2020,04,01,06,36,1.50
2020,04,01,06,37,1.50
2020,04,01,06,38,1.50
2020,04,01,06,39,1.50
2020,04,01,06,40,1.40
2020,04,01,06,41,1.40
2020,04,01,06,42,1.40
2020,04,01,06,43,1.40
2020,04,01,06,44,1.40
2020,04,01,06,45,1.40
2020,04,01,06,46,1.30
2020,04,01,06,47,1.30
2020,04,01,06,48,1.30
2020,04,01,06,49,1.30
2020,04,01,06,50,1.20
2020,04,01,06,51,1.20
2020,04,01,06,52,1.20
2020,04,01,06,53,1.10
2020,04,01,06,54,1.10
2020,04,01,06,55,1.10
2020,04,01,06,56,1.10
2020,04,01,06,57,1.10
2020,04,01,06,58,1.10
2020,04,01,06,59,1.10
2020,04,01,07,00,1.10
2020,04,01,07,01,1.10
2020,04,01,07,02,1.10
2020,04,01,07,03,1.10
2020,04,01,07,04,1.10
2020,04,01,07,05,1.10
2020,04,01,07,06,1.00
2020,04,01,07,07,1.00
2020,04,01,07,08,1.00
2020,04,01,07,09,1.00
2020,04,01,07,10,0.90
2020,04,01,07,11,0.90
2020,04,01,07,12,0.90
2020,04,01,07,13,0.90
2020,04,01,07,14,0.90
2020,04,01,07,15,0.90
2020,04,01,07,16,0.90
2020,04,01,07,17,0.90
2020,04,01,07,18,0.90
2020,04,01,07,19,0.90
2020,04,01,07,20,0.90
2020,04,01,07,21,0.90
2020,04,01,07,22,0.90
2020,04,01,07,23,0.90
2020,04,01,07,24,0.90
2020,04,01,07,25,0.90
2020,04,01,07,26,0.90
2020,04,01,07,27,0.90
2020,04,01,07,28,0.90
2020,04,01,07,29,0.90
2020,04,01,07,30,1.00
2020,04,01,07,31,1.00
2020,04,01,07,32,1.00
2020,04,01,07,33,1.00
2020,04,01,07,34,1.10
2020,04,01,07,35,1.10
2020,04,01,07,36,1.10
2020,04,01,07,37,1.10
2020,04,01,07,38,1.20
2020,04,01,07,39,1.20
2020,04,01,07,40,1.20
2020,04,01,07,41,1.30
2020,04,01,07,42,1.30
2020,04,01,07,43,1.30
2020,04,01,07,44,1.40
2020,04,01,07,45,1.40
2020,04,01,07,46,1.40
2020,04,01,07,47,1.50
2020,04,01,07,48,1.50
2020,04,01,07,49,1.60
2020,04,01,07,50,1.60
2020,04,01,07,51,1.60
2020,04,01,07,52,1.70
2020,04,01,07,53,1.70
2020,04,01,07,54,1.70
2020,04,01,07,55,1.70
2020,04,01,07,56,1.80
2020,04,01,07,57,1.80
2020,04,01,07,58,1.80
2020,04,01,07,59,1.90
2020,04,01,08,00,2.00
2020,04,01,08,01,2.00
2020,04,01,08,02,2.10
2020,04,01,08,03,2.10
2020,04,01,08,04,2.20
2020,04,01,08,05,2.20
2020,04,01,08,06,2.20
2020,04,01,08,07,2.30
2020,04,01,08,08,2.30
2020,04,01,08,09,2.30
2020,04,01,08,10,2.30
2020,04,01,08,11,2.40
2020,04,01,08,12,2.40
2020,04,01,08,13,2.40
2020,04,01,08,14,2.50
2020,04,01,08,15,2.50
2020,04,01,08,16,2.60
2020,04,01,08,17,2.60
2020,04,01,08,18,2.70
2020,04,01,08,19,2.70
2020,04,01,08,20,2.80
2020,04,01,08,21,2.80
2020,04,01,08,22,2.80
2020,04,01,08,23,2.90
2020,04,01,08,24,2.90
2020,04,01,08,25,2.90
2020,04,01,08,26,2.90
2020,04,01,08,27,3.00
2020,04,01,08,28,3.00
2020,04,01,08,29,3.10
2020,04,01,08,30,3.10
2020,04,01,08,31,3.10
2020,04,01,08,32,3.20
2020,04,01,08,33,3.20
2020,04,01,08,34,3.20
2020,04,01,08,35,3.30
2020,04,01,08,36,3.30
2020,04,01,08,37,3.30
2020,04,01,08,38,3.40
2020,04,01,08,39,3.40
2020,04,01,08,40,3.40
2020,04,01,08,41,3.50
2020,04,01,08,42,3.50
2020,04,01,08,43,3.60
2020,04,01,08,44,3.60
2020,04,01,08,45,3.60
2020,04,01,08,46,3.70
2020,04,01,08,47,3.70
2020,04,01,08,48,3.70
2020,04,01,08,49,3.80
2020,04,01,08,50,3.80
2020,04,01,08,51,3.90
2020,04,01,08,52,3.90
2020,04,01,08,53,3.90
2020,04,01,08,54,3.90
2020,04,01,08,55,4.00
2020,04,01,08,56,4.00
2020,04,01,08,57,4.10
2020,04,01,08,58,4.10
2020,04,01,08,59,4.10
2020,04,01,09,00,4.20
2020,04,01,09,01,4.20
2020,04,01,09,02,4.20
2020,04,01,09,03,4.20
2020,04,01,09,04,4.30
2020,04,01,09,05,4.30
2020,04,01,09,06,4.30
2020,04,01,09,07,4.40
2020,04,01,09,08,4.40
2020,04,01,09,09,4.40
2020,04,01,09,10,4.40
2020,04,01,09,11,4.40
2020,04,01,09,12,4.50
2020,04,01,09,13,4.50
2020,04,01,09,14,4.60
2020,04,01,09,15,4.60
2020,04,01,09,16,4.60
2020,04,01,09,17,4.60
2020,04,01,09,18,4.70
2020,04,01,09,19,4.70
2020,04,01,09,20,4.70
2020,04,01,09,21,4.70
2020,04,01,09,22,4.70
2020,04,01,09,23,4.80
2020,04,01,09,24,4.80
2020,04,01,09,25,4.80
2020,04,01,09,26,4.80
2020,04,01,09,27,4.80
2020,04,01,09,28,4.80
2020,04,01,09,29,4.80
2020,04,01,09,30,4.80
2020,04,01,09,31,4.80
2020,04,01,09,32,4.80
2020,04,01,09,33,4.80
2020,04,01,09,34,4.80
2020,04,01,09,35,4.80
2020,04,01,09,36,4.90
2020,04,01,09,37,4.90
2020,04,01,09,38,4.90
2020,04,01,09,39,4.90
2020,04,01,09,40,5.00
2020,04,01,09,41,5.00
2020,04,01,09,42,5.00
2020,04,01,09,43,5.10
2020,04,01,09,44,5.10
2020,04,01,09,45,5.10
2020,04,01,09,46,5.20
2020,04,01,09,47,5.20
2020,04,01,09,48,5.20
2020,04,01,09,49,5.30
2020,04,01,09,50,5.30
2020,04,01,09,51,5.30
2020,04,01,09,52,5.30
2020,04,01,09,53,5.30
2020,04,01,09,54,5.30
2020,04,01,09,55,5.30
2020,04,01,09,56,5.30
2020,04,01,09,57,5.20
2020,04,01,09,58,5.20
2020,04,01,09,59,5.20
2020,04,01,10,00,5.30
2020,04,01,10,01,5.30
2020,04,01,10,02,5.30
2020,04,01,10,03,5.40
2020,04,01,10,04,5.30
2020,04,01,10,05,5.30
2020,04,01,10,06,5.30
2020,04,01,10,07,5.30
2020,04,01,10,08,5.30
2020,04,01,10,09,5.40
2020,04,01,10,10,5.40
2020,04,01,10,11,5.40
2020,04,01,10,12,5.50
2020,04,01,10,13,5.50
2020,04,01,10,14,5.60
2020,04,01,10,15,5.60
2020,04,01,10,16,5.60
2020,04,01,10,17,5.60
2020,04,01,10,18,5.60
2020,04,01,10,19,5.70
2020,04,01,10,20,5.70
2020,04,01,10,21,5.80
2020,04,01,10,22,5.80
2020,04,01,10,23,5.90
2020,04,01,10,24,5.90
2020,04,01,10,25,5.90
2020,04,01,10,26,5.90
2020,04,01,10,27,5.90
2020,04,01,10,28,5.90
2020,04,01,10,29,5.90
2020,04,01,10,30,5.90
2020,04,01,10,31,5.90
2020,04,01,10,32,5.90
2020,04,01,10,33,5.90
2020,04,01,10,34,5.90
2020,04,01,10,35,5.90
2020,04,01,10,36,6.00
2020,04,01,10,37,6.00
2020,04,01,10,38,6.10
2020,04,01,10,39,6.10
2020,04,01,10,40,6.10
2020,04,01,10,41,6.20
2020,04,01,10,42,6.20
2020,04,01,10,43,6.20
2020,04,01,10,44,6.20
2020,04,01,10,45,6.20
2020,04,01,10,46,6.30
2020,04,01,10,47,6.30
2020,04,01,10,48,6.40
2020,04,01,10,49,6.40
2020,04,01,10,50,6.30
2020,04,01,10,51,6.30
2020,04,01,10,52,6.30
2020,04,01,10,53,6.30
2020,04,01,10,54,6.30
2020,04,01,10,55,6.40
2020,04,01,10,56,6.40
2020,04,01,10,57,6.40
2020,04,01,10,58,6.40
2020,04,01,10,59,6.50
2020,04,01,11,00,6.50
2020,04,01,11,01,6.60
2020,04,01,11,02,6.70
2020,04,01,11,03,6.70
2020,04,01,11,04,6.70
2020,04,01,11,05,6.70
2020,04,01,11,06,6.70
2020,04,01,11,07,6.80
2020,04,01,11,08,6.80
2020,04,01,11,09,6.80
2020,04,01,11,10,6.80
2020,04,01,11,11,6.70
2020,04,01,11,12,6.80
2020,04,01,11,13,6.80
2020,04,01,11,14,6.80
2020,04,01,11,15,6.80
2020,04,01,11,16,6.80
2020,04,01,11,17,6.80
2020,04,01,11,18,6.80
2020,04,01,11,19,6.90
2020,04,01,11,20,6.90
2020,04,01,11,21,6.90
2020,04,01,11,22,6.90
2020,04,01,11,23,6.90
2020,04,01,11,24,7.00
2020,04,01,11,25,7.10
2020,04,01,11,26,7.20
2020,04,01,11,27,7.20
2020,04,01,11,28,7.30
2020,04,01,11,29,7.30
2020,04,01,11,30,7.20
2020,04,01,11,31,7.20
2020,04,01,11,32,7.20
2020,04,01,11,33,7.20
2020,04,01,11,34,7.10
2020,04,01,11,35,7.00
2020,04,01,11,36,7.00
2020,04,01,11,37,7.00
2020,04,01,11,38,7.00
2020,04,01,11,39,7.00
2020,04,01,11,40,6.90
2020,04,01,11,41,6.90
2020,04,01,11,42,6.90
2020,04,01,11,43,6.90
2020,04,01,11,44,7.00
2020,04,01,11,45,7.00
2020,04,01,11,46,7.00
2020,04,01,11,47,6.90
2020,04,01,11,48,6.90
2020,04,01,11,49,6.90
2020,04,01,11,50,7.00
2020,04,01,11,51,7.00
2020,04,01,11,52,7.10
2020,04,01,11,53,7.10
2020,04,01,11,54,7.00
2020,04,01,11,55,7.10
2020,04,01,11,56,7.10
2020,04,01,11,57,7.10
2020,04,01,11,58,7.20
2020,04,01,11,59,7.10
2020,04,01,12,00,7.10
2020,04,01,12,01,7.10
2020,04,01,12,02,7.10
2020,04,01,12,03,7.10
2020,04,01,12,04,7.10
2020,04,01,12,05,7.20
2020,04,01,12,06,7.20
2020,04,01,12,07,7.20
2020,04,01,12,08,7.20
2020,04,01,12,09,7.30
2020,04,01,12,10,7.30
2020,04,01,12,11,7.40
2020,04,01,12,12,7.40
2020,04,01,12,13,7.40
2020,04,01,12,14,7.40
2020,04,01,12,15,7.40
2020,04,01,12,16,7.50
2020,04,01,12,17,7.60
2020,04,01,12,18,7.70
2020,04,01,12,19,7.70
2020,04,01,12,20,7.70
2020,04,01,12,21,7.70
2020,04,01,12,22,7.70
2020,04,01,12,23,7.80
2020,04,01,12,24,7.70
2020,04,01,12,25,7.70
2020,04,01,12,26,7.70
2020,04,01,12,27,7.70
2020,04,01,12,28,7.70
2020,04,01,12,29,7.70
2020,04,01,12,30,7.70
2020,04,01,12,31,7.70
2020,04,01,12,32,7.70
2020,04,01,12,33,7.70
2020,04,01,12,34,7.70
2020,04,01,12,35,7.80
2020,04,01,12,36,7.80
2020,04,01,12,37,7.80
2020,04,01,12,38,7.80
2020,04,01,12,39,7.80
2020,04,01,12,40,7.80
2020,04,01,12,41,7.70
2020,04,01,12,42,7.70
2020,04,01,12,43,7.70
2020,04,01,12,44,7.80
2020,04,01,12,45,7.80
2020,04,01,12,46,7.80
2020,04,01,12,47,7.80
2020,04,01,12,48,7.70
2020,04,01,12,49,7.70
2020,04,01,12,50,7.80
2020,04,01,12,51,7.80
2020,04,01,12,52,7.90
2020,04,01,12,53,7.90
2020,04,01,12,54,7.90
2020,04,01,12,55,7.90
2020,04,01,12,56,7.80
2020,04,01,12,57,7.80
2020,04,01,12,58,7.80
2020,04,01,12,59,7.90
2020,04,01,13,00,7.90
2020,04,01,13,01,8.00
2020,04,01,13,02,8.00
2020,04,01,13,03,8.00
2020,04,01,13,04,8.10
2020,04,01,13,05,8.10
2020,04,01,13,06,8.10
2020,04,01,13,07,8.10
2020,04,01,13,08,8.10
2020,04,01,13,09,8.20
2020,04,01,13,10,8.30
2020,04,01,13,11,8.30
2020,04,01,13,12,8.30
2020,04,01,13,13,8.30
2020,04,01,13,14,8.30
2020,04,01,13,15,8.30
2020,04,01,13,16,8.30
2020,04,01,13,17,8.30
2020,04,01,13,18,8.30
2020,04,01,13,19,8.30
2020,04,01,13,20,8.30
2020,04,01,13,21,8.30
2020,04,01,13,22,8.20
2020,04,01,13,23,8.20
2020,04,01,13,24,8.30
2020,04,01,13,25,8.40
2020,04,01,13,26,8.50
2020,04,01,13,27,8.50
2020,04,01,13,28,8.50
2020,04,01,13,29,8.40
2020,04,01,13,30,8.30
2020,04,01,13,31,8.40
2020,04,01,13,32,8.40
2020,04,01,13,33,8.50
2020,04,01,13,34,8.60
2020,04,01,13,35,8.60
2020,04,01,13,36,8.60
2020,04,01,13,37,8.60
2020,04,01,13,38,8.60
2020,04,01,13,39,8.60
2020,04,01,13,40,8.60
2020,04,01,13,41,8.60
2020,04,01,13,42,8.60
2020,04,01,13,43,8.50
2020,04,01,13,44,8.60
2020,04,01,13,45,8.60
2020,04,01,13,46,8.60
2020,04,01,13,47,8.70
2020,04,01,13,48,8.70
2020,04,01,13,49,8.70
2020,04,01,13,50,8.70
2020,04,01,13,51,8.70
2020,04,01,13,52,8.70
2020,04,01,13,53,8.60
2020,04,01,13,54,8.60
2020,04,01,13,55,8.70
2020,04,01,13,56,8.80
2020,04,01,13,57,8.80
2020,04,01,13,58,8.80
2020,04,01,13,59,8.80
2020,04,01,14,00,8.80
2020,04,01,14,01,8.80
2020,04,01,14,02,8.80
2020,04,01,14,03,8.80
2020,04,01,14,04,8.80
2020,04,01,14,05,8.90
2020,04,01,14,06,8.90
2020,04,01,14,07,8.90
2020,04,01,14,08,8.90
2020,04,01,14,09,8.90
2020,04,01,14,10,8.90
2020,04,01,14,11,8.90
2020,04,01,14,12,8.90
2020,04,01,14,13,8.90
2020,04,01,14,14,8.90
2020,04,01,14,15,9.00
2020,04,01,14,16,9.10
2020,04,01,14,17,9.20
2020,04,01,14,18,9.30
2020,04,01,14,19,9.40
2020,04,01,14,20,9.50
2020,04,01,14,21,9.50
2020,04,01,14,22,9.50
2020,04,01,14,23,9.40
2020,04,01,14,24,9.40
2020,04,01,14,25,9.40
2020,04,01,14,26,9.40
2020,04,01,14,27,9.50
2020,04,01,14,28,9.40
2020,04,01,14,29,9.30
2020,04,01,14,30,9.30
2020,04,01,14,31,9.30
2020,04,01,14,32,9.30
2020,04,01,14,33,9.30
2020,04,01,14,34,9.40
2020,04,01,14,35,9.40
2020,04,01,14,36,9.50
2020,04,01,14,37,9.50
2020,04,01,14,38,9.40
2020,04,01,14,39,9.40
2020,04,01,14,40,9.40
2020,04,01,14,41,9.40
2020,04,01,14,42,9.30
2020,04,01,14,43,9.30
2020,04,01,14,44,9.30
2020,04,01,14,45,9.30
2020,04,01,14,46,9.30
2020,04,01,14,47,9.30
2020,04,01,14,48,9.30
2020,04,01,14,49,9.30
2020,04,01,14,50,9.40
2020,04,01,14,51,9.40
2020,04,01,14,52,9.40
2020,04,01,14,53,9.50
2020,04,01,14,54,9.50
2020,04,01,14,55,9.50
2020,04,01,14,56,9.60
2020,04,01,14,57,9.50
2020,04,01,14,58,9.40
2020,04,01,14,59,9.40
2020,04,01,15,00,9.40
2020,04,01,15,01,9.50
2020,04,01,15,02,9.50
2020,04,01,15,03,9.50
2020,04,01,15,04,9.50
2020,04,01,15,05,9.50
2020,04,01,15,06,9.50
2020,04,01,15,07,9.60
2020,04,01,15,08,9.50
2020,04,01,15,09,9.50
2020,04,01,15,10,9.50
2020,04,01,15,11,9.50
2020,04,01,15,12,9.50
2020,04,01,15,13,9.60
2020,04,01,15,14,9.60
2020,04,01,15,15,9.60
2020,04,01,15,16,9.50
2020,04,01,15,17,9.40
2020,04,01,15,18,9.40
2020,04,01,15,19,9.40
2020,04,01,15,20,9.50
2020,04,01,15,21,9.50
2020,04,01,15,22,9.60
2020,04,01,15,23,9.60
2020,04,01,15,24,9.60
2020,04,01,15,25,9.60
2020,04,01,15,26,9.70
2020,04,01,15,27,9.70
2020,04,01,15,28,9.70
2020,04,01,15,29,9.70
2020,04,01,15,30,9.70
2020,04,01,15,31,9.70
2020,04,01,15,32,9.60
2020,04,01,15,33,9.60
2020,04,01,15,34,9.60
2020,04,01,15,35,9.70
2020,04,01,15,36,9.70
2020,04,01,15,37,9.80
2020,04,01,15,38,9.80
2020,04,01,15,39,9.80
2020,04,01,15,40,9.90
2020,04,01,15,41,9.90
2020,04,01,15,42,9.90
2020,04,01,15,43,9.90
2020,04,01,15,44,9.90
2020,04,01,15,45,9.80
2020,04,01,15,46,9.80
2020,04,01,15,47,9.80
2020,04,01,15,48,9.90
2020,04,01,15,49,9.90
2020,04,01,15,50,9.90
2020,04,01,15,51,9.90
2020,04,01,15,52,9.80
2020,04,01,15,53,9.70
2020,04,01,15,54,9.70
2020,04,01,15,55,9.70
2020,04,01,15,56,9.80
2020,04,01,15,57,9.80
2020,04,01,15,58,9.80
2020,04,01,15,59,9.80
2020,04,01,16,00,9.80
2020,04,01,16,01,9.80
2020,04,01,16,02,9.70
2020,04,01,16,03,9.70
2020,04,01,16,04,9.70
2020,04,01,16,05,9.70
2020,04,01,16,06,9.70
2020,04,01,16,07,9.70
2020,04,01,16,08,9.70
2020,04,01,16,09,9.70
2020,04,01,16,10,9.60
2020,04,01,16,11,9.60
2020,04,01,16,12,9.60
2020,04,01,16,13,9.50
2020,04,01,16,14,9.50
2020,04,01,16,15,9.40
2020,04,01,16,16,9.40
2020,04,01,16,17,9.40
2020,04,01,16,18,9.50
2020,04,01,16,19,9.60
2020,04,01,16,20,9.70
2020,04,01,16,21,9.70
2020,04,01,16,22,9.70
2020,04,01,16,23,9.60
2020,04,01,16,24,9.60
2020,04,01,16,25,9.50
2020,04,01,16,26,9.50
2020,04,01,16,27,9.50
2020,04,01,16,28,9.40
2020,04,01,16,29,9.40
2020,04,01,16,30,9.40
2020,04,01,16,31,9.40
2020,04,01,16,32,9.40
2020,04,01,16,33,9.40
2020,04,01,16,34,9.40
2020,04,01,16,35,9.40
2020,04,01,16,36,9.40
2020,04,01,16,37,9.40
2020,04,01,16,38,9.40
2020,04,01,16,39,9.40
2020,04,01,16,40,9.30
2020,04,01,16,41,9.30
2020,04,01,16,42,9.30
2020,04,01,16,43,9.30
2020,04,01,16,44,9.30
2020,04,01,16,45,9.20
2020,04,01,16,46,9.20
2020,04,01,16,47,9.20
2020,04,01,16,48,9.20
2020,04,01,16,49,9.20
2020,04,01,16,50,9.20
2020,04,01,16,51,9.20
2020,04,01,16,52,9.20
2020,04,01,16,53,9.20
2020,04,01,16,54,9.20
2020,04,01,16,55,9.20
2020,04,01,16,56,9.20
2020,04,01,16,57,9.20
2020,04,01,16,58,9.20
2020,04,01,16,59,9.20
2020,04,01,17,00,9.20
2020,04,01,17,01,9.20
2020,04,01,17,02,9.20
2020,04,01,17,03,9.20
2020,04,01,17,04,9.30
2020,04,01,17,05,9.30
2020,04,01,17,06,9.30
2020,04,01,17,07,9.30
2020,04,01,17,08,9.30
2020,04,01,17,09,9.40
2020,04,01,17,10,9.40
2020,04,01,17,11,9.40
2020,04,01,17,12,9.50
2020,04,01,17,13,9.60
2020,04,01,17,14,9.60
2020,04,01,17,15,9.60
2020,04,01,17,16,9.70
2020,04,01,17,17,9.70
2020,04,01,17,18,9.70
2020,04,01,17,19,9.70
2020,04,01,17,20,9.70
2020,04,01,17,21,9.70
2020,04,01,17,22,9.70
2020,04,01,17,23,9.70
2020,04,01,17,24,9.70
2020,04,01,17,25,9.70
2020,04,01,17,26,9.80
2020,04,01,17,27,9.80
2020,04,01,17,28,9.80
2020,04,01,17,29,9.80
2020,04,01,17,30,9.80
2020,04,01,17,31,9.80
2020,04,01,17,32,9.80
2020,04,01,17,33,9.90
2020,04,01,17,34,9.90
2020,04,01,17,35,9.90
2020,04,01,17,36,9.90
2020,04,01,17,37,10.00
2020,04,01,17,38,10.00
2020,04,01,17,39,10.00
2020,04,01,17,40,10.00
2020,04,01,17,41,10.00
2020,04,01,17,42,10.00
2020,04,01,17,43,10.10
2020,04,01,17,44,10.10
2020,04,01,17,45,10.10
2020,04,01,17,46,10.10
2020,04,01,17,47,10.10
2020,04,01,17,48,10.00
2020,04,01,17,49,10.00
2020,04,01,17,50,9.90
2020,04,01,17,51,9.80
2020,04,01,17,52,9.80
2020,04,01,17,53,9.80
2020,04,01,17,54,9.80
2020,04,01,17,55,9.80
2020,04,01,17,56,9.80
2020,04,01,17,57,9.80
2020,04,01,17,58,9.80
2020,04,01,17,59,9.80
2020,04,01,18,00,9.80
2020,04,01,18,01,9.80
2020,04,01,18,02,9.80
2020,04,01,18,03,9.80
2020,04,01,18,04,9.80
2020,04,01,18,05,9.80
2020,04,01,18,06,9.80